Belvidere, Illinois, United States (61008)
Lat: 42.26N, Lon: 88.84W
Wx Zone: ILZ004
Local Info
Past Weather Observations for Saturday, July 19, 2014

NOTE: This archive is for the closest National Weather Service station to Belvidere. Information may differ from the station used for current weather conditions.

Click here for Long-term Archive

Time Weather Temperature Dewpoint Humidity Pressure Winds Precip Visibility
23:54
Partly Cloudy
63°F / 17°C 57°F / 14°C 83% 30.04 in
(1017 mb)
Calm - 10SM
22:54
Partly Cloudy
61°F / 16°C 57°F / 14°C 88% 30.06 in
(1018 mb)
SSE 3.5 mph
(SSE 6 kph)
- 10SM
21:54
Partly Cloudy
63°F / 17°C 57°F / 14°C 83% 30.06 in
(1018 mb)
SE 3.5 mph
(SE 6 kph)
- 8SM
20:54
Partly Cloudy
64°F / 18°C 61°F / 16°C 88% 30.06 in
(1018 mb)
Calm - 10SM
19:54
Overcast
70°F / 21°C 59°F / 15°C 69% 30.06 in
(1018 mb)
Calm - 10SM
18:54
Mostly Cloudy
72°F / 22°C 57°F / 14°C 61% 30.04 in
(1017 mb)
S 3.5 mph
(S 6 kph)
- 10SM
17:54
Overcast
73°F / 23°C 55°F / 13°C 53% 30.04 in
(1017 mb)
SW 5.8 mph
(SW 9 kph)
- 10SM
16:54
Mostly Cloudy
75°F / 24°C 55°F / 13°C 50% 30.04 in
(1017 mb)
S 6.9 mph
(S 11 kph)
- 10SM
15:54
Partly Cloudy
77°F / 25°C 55°F / 13°C 47% 30.04 in
(1017 mb)
SW 9.2 mph
(SW 15 kph)
- 10SM
14:54
Mostly Cloudy
77°F / 25°C 55°F / 13°C 47% 30.04 in
(1017 mb)
SSE 4.6 mph
(SSE 7 kph)
- 10SM
13:54
Mostly Cloudy
77°F / 25°C 55°F / 13°C 47% 30.06 in
(1018 mb)
S 8.1 mph
(S 13 kph)
- 10SM
12:54
Mostly Cloudy
77°F / 25°C 55°F / 13°C 47% 30.06 in
(1018 mb)
Variable 5.8 mph
(Variable 9 kph)
- 10SM
11:54
Partly Cloudy
77°F / 25°C 55°F / 13°C 47% 30.09 in
(1019 mb)
Variable 5.8 mph
(Variable 9 kph)
- 10SM
10:54
Partly Cloudy
75°F / 24°C 55°F / 13°C 50% 30.09 in
(1019 mb)
SW 4.6 mph
(SW 7 kph)
- 10SM
09:54
Partly Cloudy
75°F / 24°C 57°F / 14°C 54% 30.12 in
(1020 mb)
S 4.6 mph
(S 7 kph)
- 10SM
08:54
Clear
72°F / 22°C 57°F / 14°C 61% 30.12 in
(1020 mb)
S 8.1 mph
(S 13 kph)
- 10SM
07:54
Partly Cloudy
68°F / 20°C 57°F / 14°C 69% 30.12 in
(1020 mb)
S 4.6 mph
(S 7 kph)
- 10SM
06:54
Partly Cloudy
63°F / 17°C 57°F / 14°C 83% 30.12 in
(1020 mb)
Calm - 10SM
05:54
Partly Cloudy
59°F / 15°C 55°F / 13°C 88% 30.12 in
(1020 mb)
Calm - 10SM
04:54
Partly Cloudy
57°F / 14°C 54°F / 12°C 88% 30.12 in
(1020 mb)
Calm - 10SM
03:54
Partly Cloudy
59°F / 15°C 54°F / 12°C 82% 30.12 in
(1020 mb)
Calm - 10SM
02:54
Partly Cloudy
57°F / 14°C 54°F / 12°C 88% 30.09 in
(1019 mb)
E 4.6 mph
(E 7 kph)
- 10SM
01:54
Clear
61°F / 16°C 55°F / 13°C 83% 30.09 in
(1019 mb)
SSE 3.5 mph
(SSE 6 kph)
- 10SM
00:54
Partly Cloudy
61°F / 16°C 55°F / 13°C 83% 30.12 in
(1020 mb)
Calm - 10SM
Time Weather Temperature Dewpoint Humidity Pressure Winds Precip Visibility


Weather for websites

WeatherForYou.com, LLC is not responsible for any damages or problems caused by this service. Current weather conditions are obtained from the closest station including government and personal stations which may have varying degrees of accuracy. Weather forecasts are derived from the NOAA NDFD. Like all things, this site belongs to Jesus Christ... He just trusts me to maintain it. If you have any questions or comments email webmaster@weatherforyou.com

Copyright © 2014, WeatherForYou.com LLC. All rights reserved.